| time (UTC) | temp F | wind direction | speed MPH | gust MPH | rain 1hr in | rain 24hr in | rain mn in | humidity % | barometer mb |
| 20260903145816 | 75 | 5 | 1.0 | 8.0 | 0.00 | 0.34 | 0.31 | 85 | 1015.1 |
| 20260903145314 | 75 | 297 | 1.0 | 8.0 | 0.00 | 0.34 | 0.31 | 86 | 1015.0 |
| 20260903144830 | 74 | 119 | 1.0 | 4.0 | 0.00 | 0.34 | 0.31 | 86 | 1015.0 |
| 20260903144327 | 74 | 355 | 1.0 | 4.0 | 0.00 | 0.34 | 0.31 | 87 | 1014.9 |
| 20260903143824 | 74 | 335 | 3.0 | 4.0 | 0.00 | 0.34 | 0.31 | 86 | 1014.8 |
| 20260903143321 | 74 | 302 | 1.0 | 8.0 | 0.00 | 0.34 | 0.31 | 87 | 1014.8 |
| 20260903142820 | 74 | 360 | 3.0 | 8.0 | 0.00 | 0.34 | 0.31 | 87 | 1015.2 |
| 20260903142318 | 73 | 5 | 3.0 | 9.0 | 0.00 | 0.34 | 0.31 | 88 | 1015.1 |
| 20260903141814 | 73 | 346 | 3.0 | 9.0 | 0.00 | 0.34 | 0.31 | 89 | 1015.0 |
| 20260903141312 | 73 | 304 | 2.0 | 7.0 | 0.00 | 0.34 | 0.31 | 90 | 1015.1 |
| 20260903140829 | 72 | 326 | 2.0 | 8.0 | 0.00 | 0.34 | 0.31 | 90 | 1014.9 |
| 20260903140326 | 72 | 304 | 3.0 | 8.0 | 0.00 | 0.34 | 0.31 | 90 | 1015.0 |
| 20260903135822 | 72 | 346 | 3.0 | 7.0 | 0.00 | 0.35 | 0.31 | 91 | 1015.0 |
| 20260903135324 | 72 | 190 | 1.0 | 10.0 | 0.00 | 0.35 | 0.31 | 92 | 1015.0 |
| 20260903134821 | 72 | 355 | 3.0 | 5.0 | 0.00 | 0.35 | 0.31 | 92 | 1015.0 |
| 20260903134318 | 72 | 18 | 0.0 | 4.0 | 0.00 | 0.35 | 0.31 | 93 | 1014.9 |
| 20260903133814 | 71 | 309 | 1.0 | 7.0 | 0.00 | 0.35 | 0.31 | 93 | 1014.9 |
| 20260903133331 | 71 | 308 | 2.0 | 7.0 | 0.00 | 0.35 | 0.31 | 94 | 1015.3 |
| 20260903132825 | 71 | 51 | 2.0 | 6.0 | 0.00 | 0.35 | 0.31 | 94 | 1015.4 |
| 20260903132323 | 71 | 250 | 2.0 | 4.0 | 0.00 | 0.35 | 0.31 | 94 | 1015.4 |
| 20260903131824 | 71 | 5 | 1.0 | 3.0 | 0.00 | 0.35 | 0.31 | 94 | 1015.2 |
| 20260903131321 | 71 | 30 | 1.0 | 3.0 | 0.00 | 0.35 | 0.31 | 94 | 1015.2 |
| 20260903130818 | 70 | 355 | 0.0 | 2.0 | 0.00 | 0.35 | 0.31 | 95 | 1015.2 |
| 20260903130315 | 71 | 355 | 0.0 | 3.0 | 0.00 | 0.35 | 0.31 | 95 | 1015.1 |
| 20260903125828 | 70 | 340 | 1.0 | 3.0 | 0.00 | 0.36 | 0.31 | 96 | 1015.0 |
| 20260903125325 | 70 | 74 | 0.0 | 2.0 | 0.00 | 0.36 | 0.31 | 96 | 1014.9 |
| 20260903124822 | 70 | 164 | 0.0 | 0.0 | 0.00 | 0.36 | 0.31 | 96 | 1014.9 |
| 20260903124323 | 69 | 175 | 0.0 | 0.0 | 0.00 | 0.36 | 0.31 | 96 | 1015.0 |
| 20260903123820 | 69 | 174 | 0.0 | 0.0 | 0.00 | 0.36 | 0.31 | 96 | 1015.0 |
| 20260903123317 | 69 | 174 | 0.0 | 0.0 | 0.00 | 0.36 | 0.31 | 97 | 1015.1 |
| 20260903122811 | 69 | 174 | 0.0 | 1.0 | 0.00 | 0.36 | 0.31 | 96 | 1015.1 |
| 20260903122328 | 69 | 174 | 0.0 | 2.0 | 0.00 | 0.36 | 0.31 | 97 | 1014.9 |
| 20260903121825 | 68 | 111 | 0.0 | 2.0 | 0.00 | 0.36 | 0.31 | 97 | 1014.9 |
| 20260903121322 | 68 | 327 | 0.0 | 4.0 | 0.00 | 0.36 | 0.31 | 96 | 1015.1 |
| 20260903120823 | 68 | 346 | 2.0 | 4.0 | 0.00 | 0.36 | 0.31 | 96 | 1015.2 |
| 20260903120320 | 68 | 337 | 0.0 | 1.0 | 0.00 | 0.36 | 0.31 | 97 | 1015.0 |
| 20260903115816 | 68 | 24 | 0.0 | 0.0 | 0.00 | 0.37 | 0.31 | 97 | 1014.8 |
| 20260903115313 | 68 | 32 | 0.0 | 2.0 | 0.00 | 0.37 | 0.31 | 96 | 1014.8 |
| 20260903114829 | 68 | 121 | 0.0 | 4.0 | 0.00 | 0.37 | 0.31 | 97 | 1014.7 |
| 20260903114326 | 68 | 302 | 0.0 | 4.0 | 0.00 | 0.37 | 0.31 | 97 | 1014.9 |
| 20260903113823 | 67 | 57 | 1.0 | 3.0 | 0.00 | 0.37 | 0.31 | 97 | 1014.8 |
| 20260903113324 | 67 | 290 | 1.0 | 4.0 | 0.00 | 0.37 | 0.31 | 97 | 1014.8 |
| 20260903112820 | 67 | 224 | 2.0 | 4.0 | 0.00 | 0.37 | 0.31 | 97 | 1014.7 |
| 20260903112318 | 67 | 60 | 0.0 | 2.0 | 0.00 | 0.37 | 0.31 | 97 | 1015.0 |
| 20260903111814 | 67 | 290 | 0.0 | 2.0 | 0.00 | 0.37 | 0.31 | 97 | 1015.4 |
| 20260903111311 | 67 | 345 | 0.0 | 3.0 | 0.00 | 0.37 | 0.31 | 97 | 1015.3 |
| 20260903110828 | 67 | 309 | 1.0 | 3.0 | 0.00 | 0.37 | 0.31 | 97 | 1015.3 |
| 20260903110325 | 67 | 319 | 0.0 | 0.0 | 0.00 | 0.37 | 0.31 | 97 | 1015.1 |
| 20260903105825 | 67 | 317 | 0.0 | 0.0 | 0.00 | 0.37 | 0.31 | 97 | 1015.3 |
| 20260903105323 | 67 | 24 | 0.0 | 0.0 | 0.00 | 0.37 | 0.31 | 97 | 1015.5 |
| 20260903104819 | 67 | 336 | 0.0 | 0.0 | 0.00 | 0.37 | 0.31 | 97 | 1015.4 |
| 20260903104316 | 67 | 316 | 0.0 | 0.0 | 0.00 | 0.37 | 0.31 | 97 | 1015.5 |
| 20260903103812 | 67 | 317 | 0.0 | 0.0 | 0.00 | 0.37 | 0.31 | 97 | 1015.4 |
| 20260903103329 | 67 | 317 | 0.0 | 0.0 | 0.00 | 0.37 | 0.31 | 97 | 1015.3 |
| 20260903102826 | 67 | 304 | 0.0 | 0.0 | 0.00 | 0.37 | 0.31 | 97 | 1015.5 |
| 20260903102328 | 67 | 304 | 0.0 | 0.0 | 0.00 | 0.37 | 0.31 | 97 | 1015.4 |
| 20260903101825 | 67 | 304 | 0.0 | 0.0 | 0.00 | 0.37 | 0.31 | 97 | 1015.4 |
| 20260903101322 | 67 | 304 | 0.0 | 0.0 | 0.00 | 0.37 | 0.31 | 97 | 1015.5 |
| 20260903100818 | 67 | 304 | 0.0 | 0.0 | 0.00 | 0.37 | 0.31 | 97 | 1015.4 |
| 20260903100315 | 67 | 304 | 0.0 | 0.0 | 0.00 | 0.37 | 0.31 | 97 | 1015.3 |
| 20260903095811 | 67 | 304 | 0.0 | 0.0 | 0.00 | 0.37 | 0.31 | 97 | 1015.1 |
| 20260903095328 | 67 | 304 | 0.0 | 0.0 | 0.01 | 0.37 | 0.31 | 97 | 1015.1 |
| 20260903094829 | 67 | 304 | 0.0 | 0.0 | 0.01 | 0.37 | 0.31 | 97 | 1015.0 |
| 20260903094327 | 67 | 304 | 0.0 | 0.0 | 0.01 | 0.37 | 0.31 | 97 | 1015.1 |
| 20260903093823 | 67 | 304 | 0.0 | 0.0 | 0.01 | 0.37 | 0.31 | 97 | 1014.9 |
| 20260903093320 | 67 | 304 | 0.0 | 3.0 | 0.02 | 0.37 | 0.31 | 97 | 1014.9 |
| 20260903092817 | 67 | 304 | 1.0 | 3.0 | 0.02 | 0.37 | 0.31 | 97 | 1014.9 |
| 20260903092314 | 67 | 281 | 1.0 | 3.0 | 0.02 | 0.37 | 0.31 | 97 | 1015.1 |
| 20260903091811 | 68 | 355 | 1.0 | 4.0 | 0.02 | 0.37 | 0.31 | 97 | 1015.1 |
| 20260903091312 | 67 | 341 | 2.0 | 4.0 | 0.03 | 0.37 | 0.31 | 97 | 1015.2 |
| 20260903090829 | 67 | 315 | 1.0 | 2.0 | 0.03 | 0.37 | 0.31 | 97 | 1015.1 |
| 20260903090325 | 67 | 206 | 0.0 | 2.0 | 0.03 | 0.37 | 0.31 | 97 | 1015.0 |
| 20260903085822 | 68 | 260 | 0.0 | 6.0 | 0.03 | 0.37 | 0.31 | 97 | 1015.0 |
| 20260903085320 | 68 | 68 | 2.0 | 6.0 | 0.02 | 0.36 | 0.30 | 97 | 1015.6 |
| 20260903084817 | 68 | 313 | 1.0 | 10.0 | 0.02 | 0.36 | 0.30 | 97 | 1015.5 |
| 20260903084314 | 68 | 298 | 4.0 | 10.0 | 0.02 | 0.36 | 0.30 | 97 | 1015.0 |
| 20260903083815 | 68 | 141 | 0.0 | 3.0 | 0.02 | 0.36 | 0.30 | 97 | 1014.8 |
| 20260903083312 | 68 | 64 | 1.0 | 3.0 | 0.01 | 0.35 | 0.29 | 97 | 1014.6 |
| 20260903082829 | 67 | 101 | 0.0 | 1.0 | 0.01 | 0.35 | 0.29 | 97 | 1014.5 |
| 20260903082325 | 67 | 142 | 0.0 | 0.0 | 0.01 | 0.35 | 0.29 | 97 | 1014.4 |
| 20260903081821 | 68 | 111 | 0.0 | 2.0 | 0.01 | 0.35 | 0.29 | 97 | 1014.5 |
| 20260903081318 | 68 | 111 | 0.0 | 2.0 | 0.00 | 0.34 | 0.28 | 97 | 1014.6 |
| 20260903080815 | 68 | 110 | 1.0 | 2.0 | 0.00 | 0.34 | 0.28 | 97 | 1014.7 |
| 20260903080316 | 68 | 163 | 1.0 | 7.0 | 0.01 | 0.34 | 0.28 | 97 | 1015.6 |
| 20260903075812 | 68 | 5 | 3.0 | 7.0 | 0.01 | 0.34 | 0.28 | 97 | 1016.2 |
| 20260903075330 | 68 | 321 | 1.0 | 6.0 | 0.01 | 0.34 | 0.28 | 97 | 1016.3 |
| 20260903074826 | 68 | 40 | 0.0 | 2.0 | 0.01 | 0.34 | 0.28 | 97 | 1016.2 |
| 20260903074323 | 68 | 296 | 0.0 | 3.0 | 0.02 | 0.34 | 0.28 | 98 | 1016.2 |
| 20260903073820 | 68 | 345 | 0.0 | 3.0 | 0.02 | 0.34 | 0.28 | 97 | 1016.2 |
| 20260903073317 | 67 | 301 | 0.0 | 1.0 | 0.03 | 0.34 | 0.28 | 97 | 1016.1 |
| 20260903072817 | 67 | 301 | 0.0 | 1.0 | 0.04 | 0.34 | 0.28 | 97 | 1016.1 |
| 20260903072314 | 67 | 300 | 0.0 | 1.0 | 0.05 | 0.34 | 0.28 | 97 | 1015.9 |
| 20260903071810 | 67 | 15 | 0.0 | 0.0 | 0.06 | 0.34 | 0.28 | 97 | 1015.8 |
| 20260903071327 | 67 | 322 | 0.0 | 0.0 | 0.08 | 0.34 | 0.28 | 98 | 1015.7 |
| 20260903070824 | 67 | 184 | 0.0 | 0.0 | 0.08 | 0.34 | 0.28 | 98 | 1015.5 |
| 20260903070321 | 67 | 184 | 0.0 | 0.0 | 0.08 | 0.33 | 0.27 | 97 | 1015.3 |
| 20260903065818 | 67 | 109 | 0.0 | 1.0 | 0.09 | 0.33 | 0.27 | 97 | 1015.2 |
| 20260903065320 | 67 | 98 | 0.0 | 1.0 | 0.10 | 0.33 | 0.27 | 97 | 1015.3 |
| 20260903064817 | 67 | 98 | 0.0 | 1.0 | 0.11 | 0.33 | 0.27 | 97 | 1015.3 |
| 20260903064314 | 66 | 110 | 0.0 | 1.0 | 0.10 | 0.32 | 0.26 | 97 | 1015.8 |
| 20260903063810 | 66 | 86 | 0.0 | 0.0 | 0.10 | 0.32 | 0.26 | 97 | 1016.0 |
| 20260903063327 | 66 | 84 | 0.0 | 0.0 | 0.09 | 0.31 | 0.25 | 97 | 1016.3 |
| 20260903062824 | 66 | 84 | 0.0 | 0.0 | 0.09 | 0.30 | 0.24 | 97 | 1016.4 |
| 20260903062321 | 66 | 51 | 0.0 | 0.0 | 0.08 | 0.29 | 0.23 | 97 | 1016.5 |
| 20260903061822 | 66 | 44 | 0.0 | 0.0 | 0.07 | 0.28 | 0.22 | 97 | 1016.6 |
| 20260903061319 | 66 | 44 | 0.0 | 0.0 | 0.06 | 0.26 | 0.20 | 97 | 1016.7 |
| 20260903060816 | 66 | 44 | 0.0 | 0.0 | 0.05 | 0.25 | 0.19 | 97 | 1016.6 |
| 20260903060312 | 66 | 44 | 0.0 | 0.0 | 0.05 | 0.24 | 0.18 | 97 | 1016.6 |
| 20260903055829 | 66 | 44 | 0.0 | 0.0 | 0.06 | 0.24 | 0.18 | 97 | 1016.7 |
| 20260903055327 | 67 | 44 | 0.0 | 0.0 | 0.06 | 0.23 | 0.17 | 97 | 1016.9 |
| 20260903054824 | 67 | 44 | 0.0 | 0.0 | 0.06 | 0.22 | 0.16 | 97 | 1017.1 |
| 20260903054324 | 66 | 350 | 0.0 | 0.0 | 0.07 | 0.22 | 0.16 | 97 | 1017.3 |
| 20260903053821 | 67 | 350 | 0.0 | 0.0 | 0.10 | 0.22 | 0.16 | 97 | 1017.4 |
| 20260903053318 | 67 | 350 | 0.0 | 0.0 | 0.10 | 0.22 | 0.16 | 97 | 1017.4 |
| 20260903052814 | 67 | 350 | 0.0 | 2.0 | 0.09 | 0.21 | 0.15 | 97 | 1017.4 |
| 20260903052313 | 67 | 350 | 0.0 | 2.0 | 0.11 | 0.21 | 0.15 | 97 | 1017.3 |
| 20260903051829 | 67 | 321 | 0.0 | 2.0 | 0.12 | 0.21 | 0.15 | 97 | 1016.8 |
| 20260903051326 | 66 | 103 | 0.0 | 0.0 | 0.13 | 0.20 | 0.14 | 97 | 1016.6 |
| 20260903050827 | 66 | 103 | 0.0 | 0.0 | 0.13 | 0.20 | 0.14 | 97 | 1016.8 |
| 20260903050324 | 67 | 103 | 0.0 | 0.0 | 0.13 | 0.19 | 0.13 | 97 | 1017.5 |
| 20260903045821 | 67 | 103 | 0.0 | 2.0 | 0.12 | 0.18 | 0.12 | 97 | 1017.9 |
| 20260903045319 | 67 | 103 | 0.0 | 3.0 | 0.11 | 0.17 | 0.11 | 97 | 1018.4 |
| 20260903044816 | 67 | 194 | 0.0 | 4.0 | 0.10 | 0.16 | 0.10 | 97 | 1018.7 |
| 20260903044312 | 67 | 171 | 1.0 | 4.0 | 0.09 | 0.15 | 0.09 | 97 | 1018.8 |
| 20260903043812 | 67 | 319 | 1.0 | 3.0 | 0.06 | 0.12 | 0.06 | 97 | 1019.2 |
| 20260903043329 | 67 | 11 | 0.0 | 4.0 | 0.06 | 0.12 | 0.06 | 97 | 1018.9 |
| 20260903042825 | 67 | 324 | 2.0 | 4.0 | 0.06 | 0.12 | 0.06 | 97 | 1018.9 |
| 20260903042322 | 67 | 321 | 0.0 | 4.0 | 0.04 | 0.10 | 0.04 | 97 | 1019.0 |
| 20260903041819 | 67 | 360 | 2.0 | 4.0 | 0.03 | 0.09 | 0.03 | 97 | 1019.4 |
| 20260903041317 | 67 | 345 | 0.0 | 0.0 | 0.01 | 0.07 | 0.01 | 97 | 1019.5 |
| 20260903040814 | 66 | 96 | 0.0 | 0.0 | 0.00 | 0.06 | 0.00 | 97 | 1018.9 |
| 20260903040315 | 66 | 96 | 0.0 | 0.0 | 0.00 | 0.06 | 0.00 | 97 | 1018.8 |
| 20260903035830 | 66 | 96 | 0.0 | 0.0 | 0.00 | 0.06 | 0.06 | 97 | 1018.9 |
| 20260903035328 | 66 | 96 | 0.0 | 0.0 | 0.00 | 0.06 | 0.06 | 97 | 1018.9 |
| 20260903034825 | 66 | 96 | 0.0 | 0.0 | 0.00 | 0.06 | 0.06 | 97 | 1018.8 |
| 20260903034322 | 66 | 96 | 0.0 | 0.0 | 0.00 | 0.06 | 0.06 | 97 | 1018.8 |
| 20260903033819 | 66 | 96 | 0.0 | 1.0 | 0.00 | 0.06 | 0.06 | 97 | 1018.4 |
| 20260903033316 | 66 | 96 | 0.0 | 2.0 | 0.00 | 0.06 | 0.06 | 97 | 1018.1 |
| 20260903032815 | 66 | 96 | 0.0 | 0.0 | 0.00 | 0.06 | 0.06 | 97 | 1018.1 |
| 20260903032313 | 66 | 96 | 0.0 | 0.0 | 0.00 | 0.06 | 0.06 | 97 | 1018.3 |
| 20260903031829 | 66 | 96 | 0.0 | 0.0 | 0.00 | 0.06 | 0.06 | 97 | 1018.5 |
| 20260903031325 | 66 | 96 | 0.0 | 0.0 | 0.00 | 0.06 | 0.06 | 97 | 1018.5 |
| 20260903030822 | 66 | 96 | 0.0 | 0.0 | 0.00 | 0.06 | 0.06 | 97 | 1018.3 |
| 20260903030319 | 66 | 96 | 0.0 | 0.0 | 0.00 | 0.06 | 0.06 | 97 | 1018.4 |
| 20260903025816 | 66 | 96 | 0.0 | 0.0 | 0.00 | 0.06 | 0.06 | 97 | 1018.4 |
| 20260903025318 | 66 | 96 | 0.0 | 0.0 | 0.00 | 0.06 | 0.06 | 97 | 1018.4 |
| 20260903024814 | 66 | 96 | 0.0 | 0.0 | 0.00 | 0.06 | 0.06 | 97 | 1018.4 |
| 20260903024331 | 66 | 96 | 0.0 | 0.0 | 0.00 | 0.06 | 0.06 | 97 | 1018.5 |
| 20260903023827 | 66 | 96 | 0.0 | 2.0 | 0.00 | 0.06 | 0.06 | 97 | 1018.7 |
| 20260903023324 | 66 | 96 | 0.0 | 2.0 | 0.00 | 0.06 | 0.06 | 97 | 1018.4 |
| 20260903022821 | 66 | 100 | 0.0 | 0.0 | 0.00 | 0.06 | 0.06 | 97 | 1018.5 |
| 20260903022318 | 66 | 117 | 0.0 | 0.0 | 0.00 | 0.06 | 0.06 | 97 | 1018.3 |
| 20260903021819 | 66 | 117 | 0.0 | 0.0 | 0.00 | 0.06 | 0.06 | 97 | 1018.4 |
| 20260903021316 | 66 | 162 | 0.0 | 0.0 | 0.00 | 0.06 | 0.06 | 97 | 1018.6 |
| 20260903020812 | 66 | 171 | 0.0 | 0.0 | 0.00 | 0.06 | 0.06 | 97 | 1018.9 |
| 20260903020329 | 66 | 171 | 0.0 | 0.0 | 0.01 | 0.06 | 0.06 | 97 | 1018.9 |
| 20260903015826 | 66 | 171 | 0.0 | 0.0 | 0.01 | 0.06 | 0.06 | 97 | 1019.0 |
| 20260903015324 | 66 | 171 | 0.0 | 0.0 | 0.01 | 0.06 | 0.06 | 97 | 1019.1 |
| 20260903014821 | 66 | 171 | 0.0 | 0.0 | 0.01 | 0.06 | 0.06 | 97 | 1018.8 |
| 20260903014322 | 66 | 125 | 0.0 | 0.0 | 0.01 | 0.06 | 0.06 | 97 | 1018.6 |
| 20260903013819 | 66 | 51 | 0.0 | 2.0 | 0.01 | 0.06 | 0.06 | 97 | 1018.5 |
| 20260903013316 | 66 | 107 | 0.0 | 2.0 | 0.01 | 0.06 | 0.06 | 97 | 1018.5 |
| 20260903012811 | 66 | 136 | 0.0 | 3.0 | 0.01 | 0.06 | 0.06 | 97 | 1018.5 |
| 20260903012330 | 66 | 107 | 1.0 | 3.0 | 0.01 | 0.06 | 0.06 | 97 | 1018.7 |
| 20260903011826 | 66 | 92 | 0.0 | 2.0 | 0.01 | 0.06 | 0.06 | 97 | 1018.5 |
| 20260903011319 | 66 | 71 | 0.0 | 1.0 | 0.01 | 0.06 | 0.06 | 97 | 1018.9 |
| 20260903010820 | 66 | 93 | 0.0 | 2.0 | 0.01 | 0.06 | 0.06 | 97 | 1019.0 |
| 20260903010317 | 66 | 113 | 0.0 | 2.0 | 0.00 | 0.05 | 0.05 | 97 | 1018.9 |
| 20260903005814 | 66 | 140 | 0.0 | 1.0 | 0.00 | 0.06 | 0.05 | 97 | 1019.3 |
| 20260903005311 | 66 | 140 | 0.0 | 1.0 | 0.00 | 0.06 | 0.05 | 97 | 1019.2 |
| 20260903004827 | 66 | 150 | 0.0 | 1.0 | 0.00 | 0.06 | 0.05 | 97 | 1018.9 |
| 20260903004326 | 66 | 120 | 0.0 | 1.0 | 0.00 | 0.06 | 0.05 | 97 | 1018.9 |
| 20260903003822 | 66 | 138 | 0.0 | 1.0 | 0.00 | 0.06 | 0.05 | 97 | 1019.0 |
| 20260903003323 | 66 | 148 | 0.0 | 2.0 | 0.00 | 0.06 | 0.05 | 96 | 1019.0 |
| 20260903002819 | 66 | 125 | 0.0 | 2.0 | 0.00 | 0.06 | 0.05 | 96 | 1019.2 |
| 20260903002317 | 66 | 105 | 1.0 | 2.0 | 0.00 | 0.06 | 0.05 | 96 | 1019.0 |
| 20260903001814 | 67 | 114 | 0.0 | 0.0 | 0.00 | 0.06 | 0.05 | 96 | 1019.0 |
| 20260903001311 | 67 | 117 | 0.0 | 0.0 | 0.00 | 0.06 | 0.05 | 96 | 1019.0 |
| 20260903000828 | 67 | 92 | 0.0 | 0.0 | 0.00 | 0.06 | 0.05 | 96 | 1018.8 |
| 20260903000325 | 67 | 92 | 0.0 | 0.0 | 0.00 | 0.06 | 0.05 | 96 | 1018.9 |
| 20260902235824 | 67 | 92 | 0.0 | 0.0 | 0.00 | 0.24 | 0.05 | 96 | 1018.9 |
| 20260902235322 | 67 | 71 | 0.0 | 0.0 | 0.00 | 0.24 | 0.05 | 96 | 1018.7 |
| 20260902234819 | 67 | 132 | 0.0 | 0.0 | 0.00 | 0.24 | 0.05 | 96 | 1018.5 |
| 20260902234316 | 67 | 126 | 0.0 | 0.0 | 0.00 | 0.24 | 0.05 | 96 | 1018.6 |
| 20260902233813 | 67 | 126 | 0.0 | 0.0 | 0.00 | 0.24 | 0.05 | 96 | 1018.6 |
| 20260902233330 | 67 | 147 | 0.0 | 0.0 | 0.00 | 0.24 | 0.05 | 96 | 1018.4 |
| 20260902232825 | 67 | 147 | 0.0 | 0.0 | 0.00 | 0.24 | 0.05 | 96 | 1018.5 |
| 20260902232328 | 67 | 147 | 0.0 | 0.0 | 0.00 | 0.24 | 0.05 | 96 | 1018.7 |
| 20260902231824 | 67 | 147 | 0.0 | 0.0 | 0.00 | 0.24 | 0.05 | 96 | 1018.5 |
| 20260902231321 | 67 | 147 | 0.0 | 0.0 | 0.00 | 0.24 | 0.05 | 96 | 1018.5 |
| 20260902230818 | 67 | 147 | 0.0 | 0.0 | 0.00 | 0.24 | 0.05 | 96 | 1018.6 |
| 20260902230315 | 67 | 147 | 0.0 | 0.0 | 0.00 | 0.24 | 0.05 | 96 | 1018.6 |
| 20260902225812 | 67 | 150 | 0.0 | 1.0 | 0.00 | 0.54 | 0.05 | 96 | 1018.5 |
| 20260902225329 | 67 | 166 | 0.0 | 1.0 | 0.00 | 0.54 | 0.05 | 96 | 1018.7 |
| 20260902224830 | 67 | 173 | 0.0 | 1.0 | 0.00 | 0.54 | 0.05 | 96 | 1018.7 |
| 20260902224327 | 67 | 105 | 0.0 | 2.0 | 0.00 | 0.54 | 0.05 | 96 | 1018.6 |
| 20260902223823 | 67 | 94 | 0.0 | 3.0 | 0.00 | 0.54 | 0.05 | 96 | 1018.8 |
| 20260902223320 | 67 | 93 | 0.0 | 3.0 | 0.00 | 0.54 | 0.05 | 96 | 1019.0 |
| 20260902222817 | 67 | 103 | 0.0 | 2.0 | 0.00 | 0.54 | 0.05 | 96 | 1019.1 |
| 20260902222314 | 67 | 56 | 1.0 | 2.0 | 0.00 | 0.54 | 0.05 | 96 | 1019.2 |
| 20260902221811 | 67 | 101 | 0.0 | 2.0 | 0.00 | 0.54 | 0.05 | 96 | 1019.2 |
| 20260902221313 | 67 | 157 | 0.0 | 2.0 | 0.00 | 0.54 | 0.05 | 96 | 1019.2 |
| 20260902220830 | 67 | 140 | 0.0 | 2.0 | 0.00 | 0.54 | 0.05 | 96 | 1019.1 |
| 20260902220326 | 67 | 145 | 0.0 | 3.0 | 0.00 | 0.54 | 0.05 | 96 | 1019.1 |
| 20260902215822 | 67 | 101 | 0.0 | 3.0 | 0.00 | 0.54 | 0.05 | 96 | 1019.3 |
| 20260902215319 | 67 | 114 | 0.0 | 5.0 | 0.00 | 0.54 | 0.05 | 96 | 1019.3 |
| 20260902214816 | 67 | 167 | 1.0 | 5.0 | 0.00 | 0.54 | 0.05 | 96 | 1019.3 |
| 20260902214312 | 67 | 131 | 0.0 | 2.0 | 0.00 | 0.54 | 0.05 | 96 | 1019.3 |
| 20260902213813 | 67 | 115 | 0.0 | 3.0 | 0.00 | 0.54 | 0.05 | 96 | 1019.3 |
| 20260902213330 | 67 | 96 | 1.0 | 3.0 | 0.00 | 0.54 | 0.05 | 96 | 1019.3 |
| 20260902212825 | 67 | 105 | 0.0 | 2.0 | 0.00 | 0.54 | 0.05 | 96 | 1019.3 |
| 20260902212324 | 67 | 101 | 0.0 | 2.0 | 0.00 | 0.54 | 0.05 | 96 | 1019.5 |
| 20260902211820 | 67 | 165 | 0.0 | 4.0 | 0.00 | 0.54 | 0.05 | 96 | 1019.4 |
| 20260902211317 | 67 | 140 | 0.0 | 4.0 | 0.00 | 0.54 | 0.05 | 95 | 1019.3 |
| 20260902210814 | 67 | 108 | 0.0 | 2.0 | 0.00 | 0.54 | 0.05 | 95 | 1019.4 |
| 20260902210315 | 67 | 152 | 0.0 | 3.0 | 0.00 | 0.54 | 0.05 | 95 | 1019.3 |
| 20260902205812 | 67 | 126 | 0.0 | 2.0 | 0.00 | 0.54 | 0.05 | 95 | 1019.3 |
| 20260902205329 | 67 | 103 | 0.0 | 2.0 | 0.00 | 0.54 | 0.05 | 95 | 1019.3 |
| 20260902204825 | 67 | 152 | 0.0 | 0.0 | 0.00 | 0.54 | 0.05 | 95 | 1019.3 |
| 20260902204322 | 67 | 152 | 0.0 | 0.0 | 0.00 | 0.54 | 0.05 | 95 | 1019.3 |
| 20260902203818 | 67 | 152 | 0.0 | 2.0 | 0.00 | 0.54 | 0.05 | 95 | 1019.4 |
| 20260902203315 | 67 | 151 | 0.0 | 2.0 | 0.00 | 0.54 | 0.05 | 95 | 1019.3 |
| 20260902202816 | 67 | 140 | 0.0 | 2.0 | 0.00 | 0.54 | 0.05 | 95 | 1019.3 |
| 20260902202313 | 66 | 140 | 0.0 | 2.0 | 0.00 | 0.54 | 0.05 | 96 | 1019.3 |
| 20260902201830 | 66 | 79 | 1.0 | 2.0 | 0.00 | 0.54 | 0.05 | 95 | 1019.3 |
| 20260902201327 | 67 | 152 | 0.0 | 2.0 | 0.00 | 0.54 | 0.05 | 96 | 1019.3 |
| 20260902200824 | 67 | 165 | 0.0 | 2.0 | 0.00 | 0.54 | 0.05 | 96 | 1019.3 |
| 20260902200320 | 67 | 219 | 0.0 | 2.0 | 0.00 | 0.54 | 0.05 | 96 | 1019.1 |
| 20260902195817 | 67 | 99 | 1.0 | 2.0 | 0.00 | 0.54 | 0.05 | 96 | 1019.1 |
| 20260902195318 | 67 | 266 | 0.0 | 0.0 | 0.00 | 0.54 | 0.05 | 95 | 1019.4 |
| 20260902194815 | 67 | 321 | 0.0 | 0.0 | 0.01 | 0.54 | 0.05 | 96 | 1019.4 |
| 20260902194312 | 66 | 321 | 0.0 | 0.0 | 0.02 | 0.54 | 0.05 | 95 | 1019.4 |
| 20260902193829 | 66 | 321 | 0.0 | 0.0 | 0.02 | 0.54 | 0.05 | 96 | 1019.5 |
| 20260902193325 | 66 | 321 | 0.0 | 0.0 | 0.02 | 0.54 | 0.05 | 96 | 1019.6 |
| 20260902192822 | 66 | 321 | 0.0 | 0.0 | 0.02 | 0.54 | 0.05 | 96 | 1019.7 |
| 20260902192320 | 66 | 321 | 0.0 | 0.0 | 0.02 | 0.54 | 0.05 | 95 | 1019.6 |
| 20260902191821 | 66 | 321 | 0.0 | 0.0 | 0.02 | 0.54 | 0.05 | 96 | 1019.7 |
| 20260902191318 | 66 | 321 | 0.0 | 0.0 | 0.02 | 0.54 | 0.05 | 96 | 1019.8 |
| 20260902190815 | 66 | 321 | 0.0 | 2.0 | 0.02 | 0.54 | 0.05 | 96 | 1019.8 |
| 20260902190312 | 66 | 342 | 1.0 | 5.0 | 0.02 | 0.54 | 0.05 | 95 | 1020.1 |
| 20260902185828 | 66 | 340 | 1.0 | 5.0 | 0.02 | 0.54 | 0.05 | 95 | 1020.2 |
| 20260902185325 | 66 | 327 | 1.0 | 4.0 | 0.02 | 0.54 | 0.05 | 95 | 1020.3 |
| 20260902184821 | 67 | 329 | 2.0 | 4.0 | 0.01 | 0.53 | 0.04 | 95 | 1020.4 |
| 20260902184322 | 66 | 355 | 2.0 | 4.0 | 0.00 | 0.52 | 0.03 | 96 | 1020.3 |
| 20260902183819 | 66 | 355 | 0.0 | 2.0 | 0.00 | 0.52 | 0.03 | 96 | 1020.0 |
| 20260902183316 | 66 | 355 | 0.0 | 0.0 | 0.00 | 0.52 | 0.03 | 96 | 1019.9 |
| 20260902182813 | 66 | 355 | 0.0 | 0.0 | 0.00 | 0.52 | 0.03 | 96 | 1019.9 |
| 20260902182330 | 66 | 355 | 0.0 | 0.0 | 0.00 | 0.52 | 0.03 | 96 | 1020.0 |
| 20260902181826 | 66 | 355 | 0.0 | 0.0 | 0.00 | 0.52 | 0.03 | 96 | 1020.0 |
| 20260902181323 | 67 | 355 | 0.0 | 0.0 | 0.00 | 0.52 | 0.03 | 96 | 1020.0 |
| 20260902180824 | 66 | 355 | 0.0 | 1.0 | 0.00 | 0.52 | 0.03 | 96 | 1020.1 |
| 20260902180321 | 66 | 355 | 0.0 | 3.0 | 0.00 | 0.52 | 0.03 | 96 | 1020.2 |
| 20260902175817 | 66 | 355 | 2.0 | 3.0 | 0.00 | 0.52 | 0.03 | 96 | 1020.4 |
| 20260902175315 | 66 | 11 | 0.0 | 1.0 | 0.00 | 0.52 | 0.03 | 96 | 1020.3 |
| 20260902174812 | 66 | 130 | 0.0 | 1.0 | 0.00 | 0.52 | 0.03 | 96 | 1020.1 |
| 20260902174329 | 66 | 130 | 0.0 | 1.0 | 0.00 | 0.52 | 0.03 | 96 | 1019.8 |
| 20260902173825 | 66 | 92 | 0.0 | 0.0 | 0.00 | 0.52 | 0.03 | 96 | 1019.9 |
| 20260902173326 | 66 | 92 | 0.0 | 0.0 | 0.00 | 0.52 | 0.03 | 96 | 1020.0 |
| 20260902172822 | 66 | 92 | 0.0 | 0.0 | 0.00 | 0.52 | 0.03 | 96 | 1020.2 |
| 20260902172320 | 66 | 92 | 0.0 | 2.0 | 0.00 | 0.52 | 0.03 | 96 | 1020.2 |
| 20260902171817 | 65 | 92 | 0.0 | 3.0 | 0.00 | 0.52 | 0.03 | 96 | 1020.2 |
| 20260902171314 | 65 | 92 | 2.0 | 3.0 | 0.00 | 0.52 | 0.03 | 96 | 1020.2 |
| 20260902170811 | 66 | 113 | 0.0 | 0.0 | 0.00 | 0.52 | 0.03 | 96 | 1020.3 |
| 20260902170311 | 66 | 113 | 0.0 | 0.0 | 0.00 | 0.52 | 0.03 | 96 | 1020.3 |
| 20260902165827 | 65 | 113 | 0.0 | 0.0 | 0.00 | 0.52 | 0.03 | 96 | 1020.4 |
| 20260902165324 | 65 | 113 | 0.0 | 0.0 | 0.00 | 0.52 | 0.03 | 96 | 1020.4 |
| 20260902164821 | 65 | 130 | 0.0 | 2.0 | 0.00 | 0.52 | 0.03 | 96 | 1020.4 |
| 20260902164317 | 65 | 72 | 1.0 | 2.0 | 0.00 | 0.52 | 0.03 | 97 | 1020.3 |
| 20260902163814 | 65 | 118 | 0.0 | 2.0 | 0.00 | 0.52 | 0.03 | 97 | 1020.3 |
| 20260902163311 | 65 | 104 | 1.0 | 3.0 | 0.00 | 0.52 | 0.03 | 97 | 1020.4 |
| 20260902162811 | 65 | 98 | 0.0 | 2.0 | 0.00 | 0.52 | 0.03 | 97 | 1020.5 |
| 20260902162330 | 65 | 146 | 0.0 | 1.0 | 0.00 | 0.52 | 0.03 | 97 | 1020.7 |
| 20260902161826 | 65 | 158 | 0.0 | 0.0 | 0.00 | 0.52 | 0.03 | 96 | 1020.7 |
| 20260902161322 | 65 | 158 | 0.0 | 1.0 | 0.00 | 0.52 | 0.03 | 97 | 1020.8 |
| 20260902160819 | 65 | 158 | 0.0 | 1.0 | 0.00 | 0.52 | 0.03 | 97 | 1020.8 |
| 20260902160316 | 65 | 169 | 0.0 | 0.0 | 0.00 | 0.52 | 0.03 | 97 | 1020.7 |
| 20260902155812 | 65 | 169 | 0.0 | 0.0 | 0.00 | 0.53 | 0.03 | 97 | 1020.6 |
| 20260902155314 | 65 | 169 | 0.0 | 1.0 | 0.00 | 0.53 | 0.03 | 97 | 1020.6 |
| 20260902154830 | 64 | 169 | 0.0 | 1.0 | 0.00 | 0.53 | 0.03 | 97 | 1020.6 |
| 20260902154326 | 64 | 184 | 0.0 | 2.0 | 0.00 | 0.53 | 0.03 | 97 | 1020.6 |
| 20260902153823 | 64 | 123 | 1.0 | 3.0 | 0.00 | 0.53 | 0.03 | 97 | 1020.6 |
| 20260902153320 | 64 | 86 | 1.0 | 3.0 | 0.00 | 0.53 | 0.03 | 97 | 1020.6 |
| 20260902152817 | 64 | 84 | 0.0 | 1.0 | 0.00 | 0.53 | 0.03 | 96 | 1020.5 |
| 20260902152314 | 64 | 113 | 0.0 | 2.0 | 0.00 | 0.53 | 0.03 | 97 | 1020.5 |
| 20260902151814 | 64 | 131 | 0.0 | 3.0 | 0.00 | 0.53 | 0.03 | 97 | 1020.5 |
| 20260902151313 | 64 | 130 | 0.0 | 1.0 | 0.00 | 0.53 | 0.03 | 97 | 1020.5 |
| 20260902150829 | 64 | 192 | 0.0 | 4.0 | 0.00 | 0.53 | 0.03 | 97 | 1020.7 |
| 20260902150326 | 64 | 235 | 0.0 | 4.0 | 0.00 | 0.53 | 0.03 | 97 | 1020.8 |